Location: York
(31.8935°S, 116.7682°E)
Time: 12:06:42
(UTC+08:00)

Oscar 11 - Pass Details

Date: 06 December 2022
Orbit: 611 x 621 km, 97.6° (Epoch: 29 January)

Event Time Altitude Azimuth Distance (km) Brightness Sun altitude
Rises 04:10:03 0° 11° (NNE) 2,870 10.2 -9.9°
Reaches altitude 10° 04:12:13 10° 11° (N) 1,975 9.4 -9.5°
Maximum altitude 04:16:31 84° 282° (WNW) 631 7.0 -8.7°
Drops below altitude 10° 04:20:54 10° 193° (SSW) 2,010 10.0 -8.0°
Sets 04:23:07 0° 192° (SSW) 2,925 10.8 -7.6°
